RH
13 14 17 18 22 20 21 24 21 23 31 32 36 45 51 53 64 72 71 70 65 70 69 58 53 43 34 30 31 36 48 54 54 60 63 61 53 47 44 44 45 43 34 20 16 50 60 48 31
12 13 17 20 19 18 20 20 21 21 22 30 35 42 48 54 57 63 66 69 67 68 66 69 62 50 42 35 30 33 42 47 53 59 65 60 45 49 44 48 48 44 37 28 17 25 58 52 37
13 14 17 17 16 18 22 21 21 20 22 28 31 38 43 48 53 59 65 68 67 68 69 70 68 59 50 41 34 35 35 36 38 45 46 42 44 57 59 55 52 48 42 30 20 16 27 34 33
14 13 13 16 15 19 21 22 20 20 20 24 28 32 34 40 42 48 58 67 66 72 65 60 65 68 58 49 46 37 30 27 25 28 31 38 50 57 69 74 64 58 47 39 25 18 14 19 27
11 13 15 18 20 20 20 20 20 21 21 23 27 30 29 32 35 38 48 64 69 79 77 66 55 66 70 60 53 50 40 33 32 30 35 44 54 65 75 83 79 66 48 40 26 21 17 17 21
14 10 12 15 18 20 20 21 21 21 20 22 26 29 29 31 33 34 38 50 65 71 73 79 69 60 67 70 61 59 59 47 37 37 32 41 55 65 74 85 85 73 47 40 24 19 21 21 21
15 13 14 15 16 16 18 18 22 23 22 22 22 25 25 26 29 30 32 37 55 65 70 76 81 76 73 69 67 65 64 60 50 49 53 45 50 60 69 81 81 75 53 43 26 18 24 25 22
14 15 15 15 16 19 18 17 17 17 19 18 19 22 26 25 24 25 27 28 32 47 68 79 78 82 89 82 66 72 70 66 61 57 65 73 68 63 69 70 74 72 49 29 21 16 20 28 36
13 16 17 17 17 20 18 17 16 14 13 13 14 16 20 20 21 24 24 24 26 30 39 59 71 79 76 83 78 74 72 67 69 72 69 72 81 76 52 48 44 49 39 21 16 15 20 25 32
16 16 15 15 16 17 17 16 16 16 16 15 15 15 14 14 14 15 17 18 19 20 26 30 47 58 72 79 82 77 76 76 77 77 80 74 61 63 55 37 30 24 19 13 12 14 22 26 26
14 17 16 15 15 16 17 18 18 19 18 15 15 16 17 16 15 16 16 15 13 14 16 21 25 35 46 58 70 77 80 81 85 86 89 89 75 67 56 49 38 27 15 11 12 20 25 23 31
16 15 15 16 19 20 21 20 21 20 20 17 16 15 15 15 16 15 15 15 15 14 11 12 16 19 24 33 45 57 66 72 80 91 94 96 90 81 77 68 57 39 18 19 18 24 28 24 41
17 16 16 17 17 19 20 21 22 20 21 19 19 19 20 19 19 18 17 18 20 17 13 12 11 11 13 16 21 30 45 57 65 81 91 99 94 91 89 89 80 62 36 28 27 28 29 32 35
18 19 19 21 20 19 19 17 19 18 19 21 22 23 23 23 22 23 23 24 23 22 21 18 16 14 13 12 12 15 19 29 49 62 72 82 93 97 91 92 97 87 69 48 34 32 30 30 35
20 21 20 20 20 20 17 18 18 17 16 17 17 19 21 23 25 27 28 29 28 27 24 22 20 19 18 17 15 13 13 16 23 31 47 60 70 82 99 92 92 95 91 78 67 39 32 29 30
20 20 20 22 18 20 18 17 20 17 17 17 19 19 21 23 25 28 28 28 28 27 26 25 24 22 19 17 16 15 15 14 16 23 24 28 47 69 70 88 85 89 89 89 82 70 57 43 33
20 18 18 19 21 20 21 18 20 20 19 17 18 22 21 24 28 31 30 29 29 28 26 25 23 22 22 22 20 17 15 14 15 22 24 22 18 25 54 74 76 83 86 84 82 89 80 80 59
21 20 20 22 25 21 22 20 20 20 21 22 19 17 21 27 31 30 30 28 27 30 29 29 29 28 25 23 23 26 26 22 19 20 25 24 25 21 27 36 63 77 78 96 81 88 84 85 78
25 23 24 23 26 27 23 23 23 26 27 26 25 23 28 35 34 32 30 29 29 31 32 35 36 34 30 31 27 29 27 27 28 24 19 26 29 25 21 30 39 52 56 85 95 92 82 93 94
28 26 26 26 28 29 27 27 27 30 30 30 29 31 35 36 37 36 35 35 36 34 35 35 35 31 32 33 32 30 27 25 24 23 22 24 28 31 27 29 31 39 47 47 57 78 90 85 88
29 28 30 32 32 32 34 33 33 32 32 32 34 36 37 38 38 38 39 39 39 39 38 36 34 33 31 31 29 35 34 31 28 26 28 25 29 31 26 26 33 32 43 48 49 53 79 81 91
33 33 36 37 36 34 34 40 35 34 35 36 37 39 40 40 41 42 44 42 42 45 44 41 39 39 38 36 35 34 38 33 32 30 30 31 31 32 28 27 29 37 39 41 43 48 46 49 57
36 38 40 40 42 43 40 40 41 38 41 42 42 44 44 45 46 47 47 48 50 52 53 48 44 42 44 40 41 40 38 37 37 35 33 32 31 31 31 32 30 30 34 36 36 49 41 46 49
39 41 43 43 45 57 44 38 41 42 44 44 44 44 44 48 51 50 51 53 54 58 56 50 48 46 46 44 43 43 45 43 41 38 40 37 32 30 31 31 37 35 35 33 39 35 41 65 58
43 44 53 57 63 48 46 43 44 47 44 44 43 43 45 49 52 54 55 59 62 63 58 55 56 53 50 51 52 48 47 48 46 43 42 44 41 33 32 34 37 39 38 36 36 38 49 47 49
45 45 60 61 58 49 48 49 47 45 44 45 46 45 45 48 52 55 58 61 63 61 58 59 59 57 57 57 57 54 55 55 54 49 45 48 43 40 37 39 41 40 40 42 40 41 54 45 53
52 53 53 54 55 62 47 47 47 45 45 45 44 44 46 50 53 56 57 56 56 56 56 55 58 61 59 62 63 60 58 61 63 57 52 51 48 46 47 51 48 52 50 46 48 46 55 48 49
54 54 60 65 71 59 48 45 46 51 49 44 44 44 45 49 51 50 50 51 56 61 63 65 64 64 68 69 67 65 63 65 66 68 56 54 53 50 48 55 56 55 53 55 52 52 57 59 54
59 60 61 59 60 63 56 47 53 52 48 46 46 45 43 45 45 47 52 55 58 62 69 73 78 78 77 77 70 66 68 69 72 76 67 65 61 58 56 57 58 58 60 59 59 59 59 58 63
55 56 58 68 66 67 72 52 52 50 48 46 45 44 43 44 49 50 52 55 58 63 73 79 83 90 88 85 77 71 69 71 78 81 82 73 72 65 67 67 70 71 68 63 60 61 61 63 62